EW0642 Weather Reports


Display with metric or nautical units.
time (UTC)temp
F
wind
direction
speed
MPH
gust
MPH
rain 1hr
in
rain 24hr
in
rain mn
in
humidity
%
barometer
mb
20260901040505 76 0 0.0 0.0 0.00 0.00 0.00 91 1017.9
20260901040028 76 0 0.0 0.0 0.00 0.00 0.00 91 1018.0
20260901035526 76 0 0.0 0.0 0.00 0.00 0.00 90 1017.9
20260901035005 77 359 0.0 1.0 0.00 0.00 0.00 90 1018.0
20260901034505 77 359 0.0 1.0 0.00 0.00 0.00 90 1018.0
20260901034026 77 359 0.0 1.0 0.00 0.00 0.00 90 1018.0
20260901033505 77 359 0.0 1.0 0.00 0.00 0.00 90 1017.9
20260901033005 77 359 0.0 1.0 0.00 0.00 0.00 90 1017.9
20260901032526 77 359 0.0 1.0 0.00 0.00 0.00 90 1017.9
20260901032006 77 359 0.0 1.0 0.00 0.00 0.00 90 1017.9
20260901031526 77 359 0.0 1.0 0.00 0.00 0.00 89 1017.9
20260901031005 78 0 0.0 0.0 0.00 0.00 0.00 89 1017.9
20260901030505 78 359 0.0 1.0 0.00 0.00 0.00 89 1018.0
20260901030005 78 359 0.0 1.0 0.00 0.00 0.00 89 1018.0
20260901025526 78 359 0.0 1.0 0.00 0.00 0.00 89 1018.0
20260901025006 78 0 0.0 0.0 0.00 0.00 0.00 89 1018.0
20260901024526 78 0 0.0 0.0 0.00 0.00 0.00 89 1018.0
20260901024026 78 14 0.0 2.0 0.00 0.00 0.00 89 1017.9
20260901023526 78 69 0.0 3.0 0.00 0.00 0.00 89 1017.8
20260901023005 78 133 1.0 5.0 0.00 0.00 0.00 89 1017.7
20260901022526 78 150 0.0 5.0 0.00 0.00 0.00 88 1017.7
20260901022026 78 130 0.0 1.0 0.00 0.00 0.00 88 1017.8
20260901021505 78 90 0.0 1.0 0.00 0.00 0.00 88 1017.8
20260901021026 78 79 0.0 1.0 0.00 0.00 0.00 88 1017.8
20260901020526 78 79 0.0 1.0 0.00 0.00 0.00 88 1017.8
20260901020027 78 88 0.0 4.0 0.00 0.00 0.00 88 1017.7
20260901015527 78 85 0.0 4.0 0.00 0.00 0.00 87 1017.8
20260901015005 78 150 0.0 1.0 0.00 0.00 0.00 87 1017.7
20260901014526 78 146 0.0 3.0 0.00 0.00 0.00 87 1017.7
20260901014027 78 143 0.0 3.0 0.00 0.00 0.00 87 1017.7
20260901013526 78 154 0.0 1.0 0.00 0.00 0.00 87 1017.7
20260901013026 78 182 0.0 2.0 0.00 0.00 0.00 87 1017.8
20260901012505 78 185 0.0 2.0 0.00 0.00 0.00 86 1017.8
20260901012005 78 0 0.0 0.0 0.00 0.00 0.00 86 1017.7
20260901011526 79 0 0.0 0.0 0.00 0.00 0.00 85 1017.6
20260901011006 79 0 0.0 0.0 0.00 0.00 0.00 85 1017.6
20260901010527 79 0 0.0 0.0 0.00 0.00 0.00 85 1017.7
20260901010026 79 0 0.0 0.0 0.00 0.00 0.00 84 1017.7
20260901005526 79 0 0.0 0.0 0.00 0.00 0.00 84 1017.8
20260901005028 79 0 0.0 0.0 0.00 0.00 0.00 84 1017.7
20260901004526 79 0 0.0 0.0 0.00 0.00 0.00 84 1017.7
20260901004026 79 0 0.0 0.0 0.00 0.00 0.00 84 1017.7
20260901003526 80 0 0.0 0.0 0.00 0.00 0.00 83 1017.7
20260901003026 80 0 0.0 0.0 0.00 0.00 0.00 83 1017.6
20260901002506 80 0 0.0 0.0 0.00 0.00 0.00 83 1017.6
20260901002027 80 0 0.0 0.0 0.00 0.00 0.00 82 1017.5
20260901001505 80 0 0.0 0.0 0.00 0.00 0.00 81 1017.5
20260901001026 80 0 0.0 0.0 0.00 0.00 0.00 81 1017.5
20260901000526 80 0 0.0 0.0 0.00 0.00 0.00 81 1017.4
20260901000005 80 0 0.0 0.0 0.00 0.00 0.00 81 1017.5
20260831235526 80 55 0.0 2.0 0.00 0.00 0.00 81 1017.5
20260831235006 80 55 0.0 2.0 0.00 0.00 0.00 81 1017.4
20260831234506 81 0 0.0 0.0 0.00 0.00 0.00 81 1017.5
20260831234005 81 61 0.0 1.0 0.00 0.00 0.00 81 1017.5
20260831233505 81 61 0.0 1.0 0.00 0.00 0.00 81 1017.5
20260831233026 81 73 0.0 2.0 0.00 0.00 0.00 81 1017.6
20260831232526 81 73 0.0 2.0 0.00 0.00 0.00 80 1017.6
20260831232005 81 66 1.0 2.0 0.00 0.00 0.00 80 1017.7
20260831231527 81 67 1.0 2.0 0.00 0.00 0.00 79 1017.8
20260831231007 82 72 1.0 3.0 0.00 0.00 0.00 79 1017.9
20260831230506 82 72 1.0 3.0 0.00 0.00 0.00 79 1018.0
20260831230026 82 65 1.0 2.0 0.00 0.00 0.00 78 1017.9
20260831225506 82 65 1.0 3.0 0.00 0.00 0.00 78 1017.9
20260831225005 82 81 1.0 3.0 0.00 0.00 0.00 78 1018.0
20260831224505 82 89 0.0 2.0 0.00 0.00 0.00 77 1018.0
20260831224026 83 89 0.0 2.0 0.00 0.00 0.00 77 1018.1
20260831223505 83 89 0.0 2.0 0.00 0.00 0.00 76 1018.3
20260831223005 83 84 0.0 2.0 0.00 0.00 0.00 76 1018.2
20260831222526 83 62 0.0 2.0 0.00 0.00 0.00 75 1018.2
20260831222005 83 69 0.0 2.0 0.00 0.00 0.00 75 1018.3
20260831221526 84 87 0.0 2.0 0.00 0.00 0.00 74 1018.4
20260831221026 84 97 0.0 3.0 0.00 0.00 0.00 73 1018.4
20260831220505 84 81 0.0 3.0 0.00 0.00 0.00 73 1018.4
20260831220005 84 87 0.0 3.0 0.00 0.00 0.00 72 1018.4
20260831215526 84 101 0.0 2.0 0.00 0.00 0.00 72 1018.4
20260831215026 84 105 1.0 2.0 0.00 0.00 0.00 71 1018.3
20260831214527 85 110 0.0 2.0 0.00 0.00 0.00 71 1018.3
20260831214006 85 107 0.0 1.0 0.00 0.00 0.00 71 1018.3
20260831213527 85 73 0.0 1.0 0.00 0.00 0.00 72 1018.2
20260831213005 85 350 0.0 3.0 0.00 0.00 0.00 71 1018.3
20260831212507 85 351 0.0 3.0 0.00 0.00 0.00 71 1018.2
20260831212026 86 40 0.0 3.0 0.00 0.00 0.00 71 1018.1
20260831211526 86 96 0.0 2.0 0.00 0.00 0.00 70 1018.1
20260831211026 86 94 0.0 2.0 0.00 0.00 0.00 70 1018.1
20260831210505 86 65 0.0 1.0 0.00 0.00 0.00 70 1018.2
20260831210027 86 64 0.0 1.0 0.00 0.00 0.00 70 1018.1
20260831205505 86 352 0.0 2.0 0.00 0.00 0.00 71 1018.1
20260831205005 86 4 1.0 2.0 0.00 0.00 0.00 71 1018.2
20260831204526 86 26 0.0 2.0 0.00 0.00 0.00 71 1018.2
20260831204005 86 77 0.0 2.0 0.00 0.00 0.00 73 1018.0
20260831203526 86 72 0.0 2.0 0.00 0.00 0.00 71 1018.1
20260831203027 86 7 0.0 2.0 0.00 0.00 0.00 71 1018.2
20260831202526 86 351 0.0 2.0 0.00 0.00 0.00 71 1018.2
20260831202006 86 350 0.0 1.0 0.00 0.00 0.00 72 1018.3
20260831201505 86 12 0.0 1.0 0.00 0.00 0.00 71 1018.2
20260831201026 86 86 1.0 3.0 0.00 0.00 0.00 71 1018.2
20260831200526 86 72 1.0 3.0 0.00 0.00 0.00 70 1018.2
20260831200005 86 357 1.0 3.0 0.00 0.00 0.00 71 1018.2
20260831195505 87 25 1.0 2.0 0.00 0.00 0.00 71 1018.3
20260831195005 86 97 1.0 4.0 0.00 0.00 0.00 70 1018.2
20260831194505 86 104 1.0 4.0 0.00 0.00 0.00 69 1018.2
20260831194005 87 115 0.0 2.0 0.00 0.00 0.00 71 1018.3
20260831193505 87 88 1.0 2.0 0.00 0.00 0.00 69 1018.3
20260831193026 87 91 1.0 4.0 0.00 0.00 0.00 69 1018.4
20260831192526 87 90 1.0 4.0 0.00 0.00 0.00 68 1018.6
20260831192027 88 24 1.0 3.0 0.00 0.00 0.00 70 1018.6
20260831191527 88 18 1.0 3.0 0.00 0.00 0.00 69 1018.7
20260831191005 87 72 1.0 3.0 0.00 0.00 0.00 71 1018.9
20260831190527 86 78 1.0 3.0 0.00 0.00 0.00 71 1018.8
20260831190026 86 66 1.0 3.0 0.00 0.00 0.00 70 1018.9
20260831185505 86 59 1.0 3.0 0.00 0.00 0.00 71 1018.9
20260831185006 86 22 1.0 3.0 0.00 0.00 0.00 70 1019.0
20260831184505 87 352 1.0 2.0 0.00 0.00 0.00 70 1019.0
20260831184026 87 38 1.0 2.0 0.00 0.00 0.00 69 1019.0
20260831183505 87 179 1.0 2.0 0.00 0.00 0.00 69 1019.0
20260831183026 87 131 1.0 3.0 0.00 0.00 0.00 69 1019.0
20260831182527 87 118 1.0 3.0 0.00 0.00 0.00 69 1019.0
20260831182005 87 114 2.0 6.0 0.00 0.00 0.00 68 1019.0
20260831181505 88 107 1.0 6.0 0.00 0.00 0.00 68 1018.9
20260831181006 88 82 1.0 3.0 0.00 0.00 0.00 67 1019.0
20260831180527 88 37 1.0 2.0 0.00 0.00 0.00 66 1019.0
20260831180026 89 342 1.0 3.0 0.00 0.00 0.00 66 1019.0
20260831175527 89 355 1.0 3.0 0.00 0.00 0.00 65 1019.0
20260831175026 89 111 1.0 4.0 0.00 0.00 0.00 66 1018.9
20260831174505 89 141 1.0 4.0 0.00 0.00 0.00 64 1019.1
20260831174028 89 174 1.0 4.0 0.00 0.00 0.00 64 1019.1
20260831173505 89 163 1.0 4.0 0.00 0.00 0.00 66 1019.1
20260831173026 89 150 1.0 4.0 0.00 0.00 0.00 64 1019.2
20260831172505 90 135 1.0 4.0 0.00 0.00 0.00 64 1019.2
20260831172026 89 122 1.0 4.0 0.00 0.00 0.00 67 1019.2
20260831171505 88 124 1.0 4.0 0.00 0.00 0.00 66 1019.5
20260831171005 87 91 1.0 6.0 0.00 0.00 0.00 69 1019.4
20260831170505 86 100 2.0 6.0 0.00 0.00 0.00 70 1019.5
20260831170005 85 108 3.0 8.0 0.00 0.00 0.00 71 1019.4
20260831165505 85 111 3.0 8.0 0.00 0.00 0.00 70 1019.5
20260831165005 85 109 2.0 8.0 0.00 0.00 0.00 70 1019.5
20260831164505 86 105 1.0 7.0 0.00 0.00 0.00 70 1019.5
20260831164005 85 133 1.0 7.0 0.00 0.00 0.00 70 1019.5
20260831163505 86 138 2.0 6.0 0.00 0.00 0.00 69 1019.5
20260831163026 87 114 2.0 6.0 0.00 0.00 0.00 69 1019.6
20260831162505 88 94 2.0 8.0 0.00 0.00 0.00 67 1019.6
20260831162026 88 98 2.0 8.0 0.00 0.00 0.00 66 1019.7
20260831161527 88 89 2.0 6.0 0.00 0.00 0.00 67 1019.6
20260831161026 88 76 1.0 6.0 0.00 0.00 0.00 66 1019.5
20260831160527 88 118 2.0 4.0 0.00 0.00 0.00 67 1019.5
20260831160026 87 111 2.0 4.0 0.00 0.00 0.00 69 1019.6
20260831155526 87 86 2.0 7.0 0.00 0.00 0.00 68 1019.7
20260831155005 87 24 2.0 6.0 0.00 0.00 0.00 69 1019.6
20260831154527 87 1 2.0 5.0 0.00 0.00 0.00 68 1019.6
20260831154026 86 68 2.0 7.0 0.00 0.00 0.00 71 1019.5
20260831153526 85 82 2.0 7.0 0.00 0.00 0.00 72 1019.5
20260831153006 84 65 1.0 6.0 0.00 0.00 0.00 72 1019.4
20260831152526 84 73 1.0 6.0 0.00 0.00 0.00 72 1019.5
20260831152026 84 68 1.0 4.0 0.00 0.00 0.00 73 1019.6
20260831151527 83 61 2.0 5.0 0.00 0.00 0.00 74 1019.6
20260831151006 83 53 2.0 6.0 0.00 0.00 0.00 74 1019.7
20260831150527 83 75 2.0 7.0 0.00 0.00 0.00 75 1019.8
20260831150006 83 96 3.0 9.0 0.00 0.00 0.00 74 1019.7
20260831145505 83 88 3.0 9.0 0.00 0.00 0.00 74 1019.6
20260831145026 84 73 3.0 8.0 0.00 0.00 0.00 74 1019.6
20260831144527 84 59 2.0 8.0 0.00 0.00 0.00 74 1019.8
20260831144026 83 66 1.0 4.0 0.00 0.00 0.00 77 1019.7
20260831143527 82 78 1.0 4.0 0.00 0.00 0.00 79 1019.6
20260831143026 81 98 1.0 3.0 0.00 0.00 0.00 81 1019.6
20260831142527 80 87 1.0 3.0 0.00 0.00 0.00 80 1019.7
20260831142026 80 80 1.0 3.0 0.00 0.00 0.00 80 1019.7
20260831141505 80 319 1.0 3.0 0.00 0.00 0.00 81 1019.7
20260831141005 80 8 1.0 5.0 0.00 0.00 0.00 82 1019.6
20260831140505 79 69 2.0 9.0 0.00 0.00 0.00 81 1019.6
20260831140026 79 58 2.0 9.0 0.00 0.00 0.00 81 1019.6
20260831135527 79 57 1.0 4.0 0.00 0.00 0.00 82 1019.7
20260831135005 79 38 1.0 4.0 0.00 0.00 0.00 82 1019.7
20260831134526 79 55 2.0 5.0 0.00 0.00 0.00 82 1019.8
20260831134026 80 18 2.0 6.0 0.00 0.00 0.00 82 1019.8
20260831133505 80 354 1.0 6.0 0.00 0.00 0.00 83 1019.8
20260831133005 80 4 1.0 5.0 0.00 0.00 0.00 83 1019.7
20260831132505 79 355 1.0 3.0 0.00 0.00 0.00 84 1019.7
20260831132005 79 32 1.0 3.0 0.00 0.00 0.00 85 1019.7
20260831131526 79 93 1.0 3.0 0.00 0.00 0.00 86 1019.6
20260831131005 78 73 1.0 4.0 0.00 0.00 0.00 88 1019.6
20260831130505 77 82 1.0 6.0 0.00 0.00 0.00 90 1019.5
20260831130026 77 70 1.0 6.0 0.00 0.00 0.00 91 1019.5
20260831125505 76 75 2.0 6.0 0.00 0.00 0.00 93 1019.5
20260831125025 76 84 1.0 6.0 0.00 0.00 0.00 94 1019.4
20260831124505 76 39 0.0 3.0 0.00 0.00 0.00 95 1019.4
20260831124005 76 318 1.0 3.0 0.00 0.00 0.00 95 1019.4
20260831123526 75 312 1.0 4.0 0.00 0.00 0.00 95 1019.5
20260831123006 75 111 0.0 4.0 0.00 0.00 0.00 95 1019.4
20260831122505 75 65 0.0 1.0 0.00 0.00 0.00 95 1019.3
20260831122026 75 88 0.0 3.0 0.00 0.00 0.00 95 1019.3
20260831121506 74 122 0.0 3.0 0.00 0.00 0.00 95 1019.3
20260831121005 74 284 0.0 1.0 0.00 0.00 0.00 95 1019.3
20260831120526 74 295 0.0 1.0 0.00 0.00 0.00 95 1019.2
20260831120006 74 3 1.0 2.0 0.00 0.00 0.00 95 1019.2
20260831115526 74 355 1.0 3.0 0.00 0.00 0.00 95 1019.2
20260831115026 73 340 1.0 3.0 0.00 0.00 0.00 95 1019.2
20260831114526 73 345 0.0 2.0 0.00 0.00 0.00 95 1019.2
20260831114027 72 329 0.0 2.0 0.00 0.00 0.00 95 1019.1
20260831113526 72 329 0.0 2.0 0.00 0.00 0.00 95 1019.0
20260831113005 72 313 0.0 1.0 0.00 0.00 0.00 95 1018.9
20260831112505 72 0 0.0 0.0 0.00 0.00 0.00 95 1018.8
20260831112005 71 0 0.0 0.0 0.00 0.00 0.00 95 1018.7
20260831111526 71 0 0.0 0.0 0.00 0.00 0.00 95 1018.7
20260831111005 71 0 0.0 0.0 0.00 0.00 0.00 94 1018.7
20260831110526 71 0 0.0 0.0 0.00 0.00 0.00 94 1018.7
20260831110026 71 0 0.0 0.0 0.00 0.00 0.00 94 1018.6
20260831105526 71 0 0.0 0.0 0.00 0.00 0.00 94 1018.5
20260831105026 71 345 0.0 1.0 0.00 0.00 0.00 94 1018.6
20260831104526 71 345 0.0 1.0 0.00 0.00 0.00 94 1018.6
20260831104026 71 345 0.0 1.0 0.00 0.00 0.00 94 1018.6
20260831103526 71 344 0.0 2.0 0.00 0.00 0.00 94 1018.4
20260831103026 71 344 0.0 2.0 0.00 0.00 0.00 94 1018.5
20260831102526 71 0 0.0 0.0 0.00 0.00 0.00 94 1018.4
20260831102026 71 0 0.0 0.0 0.00 0.00 0.00 94 1018.3
20260831101526 71 0 0.0 0.0 0.00 0.00 0.00 94 1018.3
20260831101005 71 0 0.0 0.0 0.00 0.00 0.00 94 1018.3
20260831100526 71 0 0.0 0.0 0.00 0.00 0.00 94 1018.2
20260831100005 71 0 0.0 0.0 0.00 0.00 0.00 94 1018.1
20260831095526 71 0 0.0 0.0 0.00 0.00 0.00 94 1018.1
20260831095005 71 0 0.0 0.0 0.00 0.00 0.00 94 1018.2
20260831094527 71 0 0.0 0.0 0.00 0.00 0.00 94 1018.1
20260831094026 71 0 0.0 0.0 0.00 0.00 0.00 94 1018.1
20260831093526 71 0 0.0 0.0 0.00 0.00 0.00 94 1018.1
20260831093005 71 0 0.0 0.0 0.00 0.00 0.00 94 1018.0
20260831092505 71 0 0.0 0.0 0.00 0.00 0.00 94 1018.0
20260831092005 71 0 0.0 0.0 0.00 0.00 0.00 94 1018.0
20260831091527 71 0 0.0 0.0 0.00 0.00 0.00 94 1018.0
20260831091026 71 0 0.0 0.0 0.00 0.00 0.00 94 1018.0
20260831090505 72 0 0.0 0.0 0.00 0.00 0.00 94 1018.0
20260831090026 72 0 0.0 0.0 0.00 0.00 0.00 94 1017.9
20260831085505 72 0 0.0 0.0 0.00 0.00 0.00 94 1018.0
20260831085026 72 0 0.0 0.0 0.00 0.00 0.00 94 1018.0
20260831084527 72 0 0.0 0.0 0.00 0.00 0.00 94 1018.0
20260831084026 72 0 0.0 0.0 0.00 0.00 0.00 94 1018.0
20260831083505 72 0 0.0 0.0 0.00 0.00 0.00 93 1018.0
20260831083005 72 0 0.0 0.0 0.00 0.00 0.00 93 1018.0
20260831082526 72 0 0.0 0.0 0.00 0.00 0.00 93 1018.0
20260831082026 72 0 0.0 0.0 0.00 0.00 0.00 93 1018.1
20260831081505 72 0 0.0 0.0 0.00 0.00 0.00 93 1018.1
20260831081005 72 0 0.0 0.0 0.00 0.00 0.00 93 1018.1
20260831080527 72 0 0.0 0.0 0.00 0.00 0.00 93 1018.1
20260831080005 72 0 0.0 0.0 0.00 0.00 0.00 93 1018.1
20260831075526 72 0 0.0 0.0 0.00 0.00 0.00 93 1018.1
20260831075005 72 0 0.0 0.0 0.00 0.00 0.00 93 1018.1
20260831074505 72 0 0.0 0.0 0.00 0.00 0.00 93 1018.1
20260831074004 72 0 0.0 0.0 0.00 0.00 0.00 92 1018.1
20260831073505 72 0 0.0 0.0 0.00 0.00 0.00 92 1018.2
20260831073025 72 0 0.0 0.0 0.00 0.00 0.00 92 1018.2
20260831072526 72 0 0.0 0.0 0.00 0.00 0.00 92 1018.1
20260831072005 72 0 0.0 0.0 0.00 0.00 0.00 92 1018.1
20260831071527 72 0 0.0 0.0 0.00 0.00 0.00 92 1018.2
20260831071005 73 0 0.0 0.0 0.00 0.00 0.00 92 1018.2
20260831070505 73 0 0.0 0.0 0.00 0.00 0.00 92 1018.2
20260831070005 73 0 0.0 0.0 0.00 0.00 0.00 92 1018.1
20260831065527 73 0 0.0 0.0 0.00 0.00 0.00 91 1018.1
20260831065027 73 0 0.0 0.0 0.00 0.00 0.00 91 1018.2
20260831064505 73 0 0.0 0.0 0.00 0.00 0.00 91 1018.2
20260831064026 73 0 0.0 0.0 0.00 0.00 0.00 91 1018.3
20260831063505 73 0 0.0 0.0 0.00 0.00 0.00 91 1018.3
20260831063005 73 0 0.0 0.0 0.00 0.00 0.00 91 1018.2
20260831062505 73 0 0.0 0.0 0.00 0.00 0.00 91 1018.3
20260831062026 73 0 0.0 0.0 0.00 0.00 0.00 91 1018.3
20260831061505 74 0 0.0 0.0 0.00 0.00 0.00 91 1018.3
20260831061004 74 0 0.0 0.0 0.00 0.00 0.00 91 1018.4
20260831060526 74 0 0.0 0.0 0.00 0.00 0.00 91 1018.5
20260831060026 74 0 0.0 0.0 0.00 0.00 0.00 91 1018.5
20260831055526 74 0 0.0 0.0 0.00 0.00 0.00 91 1018.6
20260831055026 74 0 0.0 0.0 0.00 0.00 0.00 91 1018.6
20260831054525 74 0 0.0 0.0 0.00 0.00 0.00 91 1018.7
20260831054005 74 0 0.0 0.0 0.00 0.00 0.00 91 1018.6
20260831053526 74 0 0.0 0.0 0.00 0.00 0.00 90 1018.6
20260831053026 74 0 0.0 0.0 0.00 0.00 0.00 90 1018.5
20260831052505 74 0 0.0 0.0 0.00 0.00 0.00 90 1018.5
20260831052027 74 0 0.0 0.0 0.00 0.00 0.00 90 1018.5
20260831051505 75 0 0.0 0.0 0.00 0.00 0.00 90 1018.4
20260831051004 75 242 0.0 1.0 0.00 0.00 0.00 90 1018.4
20260831050526 75 242 0.0 1.0 0.00 0.00 0.00 90 1018.4
20260831050005 75 242 0.0 1.0 0.00 0.00 0.00 90 1018.4
20260831045505 75 0 0.0 0.0 0.00 0.00 0.00 90 1018.4
20260831045025 75 0 0.0 0.0 0.00 0.00 0.00 90 1018.5
20260831044505 75 0 0.0 0.0 0.00 0.00 0.00 89 1018.5
20260831044005 75 242 0.0 1.0 0.00 0.00 0.00 89 1018.5
20260831043505 75 242 0.0 1.0 0.00 0.00 0.00 89 1018.6
20260831043027 75 242 0.0 1.0 0.00 0.00 0.00 88 1018.6
20260831042525 75 0 0.0 0.0 0.00 0.00 0.00 88 1018.6
20260831042026 75 0 0.0 0.0 0.00 0.00 0.00 88 1018.7
20260831041505 76 0 0.0 0.0 0.00 0.00 0.00 88 1018.7
20260831041005 76 0 0.0 0.0 0.00 0.00 0.00 88 1018.7